Location: De Har
(53.3413°N, 6.6858°E)
Time: 17:32:26
(UTC+00:00)

USA 290 - Pass Details

Date: 22 April 2026
Orbit: 396 x 415 km, 73.6° (Epoch: 30 October)

Event Time Altitude Azimuth Distance (km) Brightness Sun altitude
Exits shadow 03:10:18 15° 229° (SW) 1,189 3.9 -9.7°
Maximum altitude 03:12:44 47° 301° (WNW) 536 2.6 -9.4°
Drops below altitude 10° 03:15:49 10° 17° (NNE) 1,450 5.8 -9.0°
Sets 03:17:54 0° 24° (NNE) 2,312 7.1 -8.8°
